Preview of NWS' New Version of Forecast
This preview is not operational and should not be used for support decisions.
Latest weather observations around

Duluth International Airport (KDLH)

Using English Units (Switch to International System of Units)
Date/ Time (CST) Wind (mph) Vis. (mi) Weather Sky Cond. Temp (°F) Rel. Humidity Wind Chill (°F) Heat Index (°F) Pressure Precip. (in)
Air Dwpt 6 hour Altimeter (inHg) Sea level (inHg) 1 hr 3 hr 6 hr
Max Min
Feb 19 08:55 Calm 10 Clear CLR 2 -4     76%     30.45 30.57      
Feb 19 07:55 NW 3 10 Clear CLR -11 -13     91% -20   30.45 30.58      
Feb 19 06:55 Calm 10 Clear CLR -5 -10     79%     30.44 30.56      
Feb 19 05:55 Calm 10 Clear   -5 -12     72%     30.43 30.55      
Feb 19 04:55 NNW 5 10 Clear CLR -3 -11     67% -13   30.43 30.55      
Feb 19 03:55 NW 3 10 Clear CLR -1 -10     65% -9   30.43 30.54      
Feb 19 02:55 NNW 5 10 Mostly Cloudy BKN100 1 -10     59% -9   30.43 30.54      
Feb 19 01:55 NW 6 10 Mostly Cloudy BKN100 6 -7     54% -4   30.43 30.54      
Feb 19 00:55 NW 6 10 Mostly Cloudy BKN110 3 -9     56% -8   30.43 30.54      
Feb 18 23:55 Calm 10 Clear CLR 4 -9     54%     30.44 30.55      
Feb 18 22:55 NW 3 10 Mostly Clear FEW120 5 -9     51% -2   30.43 30.54      
Feb 18 21:55 W 5 10 Mostly Clear FEW120 3 -9     56% -7   30.43 30.55      
Feb 18 20:55 WNW 5 10 Clear CLR 5 -9     51% -4   30.42 30.54      
Feb 18 19:55 WNW 3 10 Mostly Clear FEW110 7 -8     50% 0   30.42 30.54      
Feb 18 18:55 WNW 3 10 Mostly Clear FEW120 11 -7     43% 5   30.41 30.53      
Feb 18 17:55 W 5 10 Mostly Clear FEW120 15 -7     36% 8   30.4 30.51      
Feb 18 16:55 W 8 10 Clear CLR 15 -4     42% 4   30.39 30.5      
Feb 18 15:55 W 9 10 Mostly Clear FEW015 17 0     46% 6   30.39 30.5      
Feb 18 14:55 WSW 6 10 Mostly Clear FEW015 18 -1     43% 10   30.38 30.49      
Feb 18 13:55 S 6 10 Mostly Clear FEW015 15 0     50% 6   30.39 30.5      
Feb 18 12:55 N 6 10 Mostly Clear FEW015 16 0     49% 7   30.39 30.5      
Feb 18 11:55 N 5 10 Partly Cloudy SCT013 14 3     61% 6   30.4 30.51     0
Feb 18 10:55 WNW 7 10 Partly Cloudy SCT012 11 3     70% 0   30.39 30.5 0    
Feb 18 10:41 Calm 10 Partly Cloudy SCT012 12 4     69%     30.39   0    
Feb 18 09:55 Calm 10 Light Snow OVC011 6 2     83%     30.38 30.49 0    
Feb 18 08:55 NNW 3 10 Light Snow OVC011 2 -2     83% -5   30.36 30.47 0 0  
Feb 18 08:24 N 5 10 Light Snow OVC013 1 -4     79% -9   30.34   0    
Feb 18 08:20 N 5 2.5 Light Snow OVC013 1 -4     79% -9   30.34   0    
Feb 18 08:09 NNE 6 1.5 Light Snow OVC012 1 -5     75% -10   30.34   0    
Feb 18 07:55 NNW 5 9 Light Snow BKN013 0 -6     75% -10   30.33 30.45 0    
Feb 18 06:55 NNW 5 9 Light Snow BKN011 0 -6     75% -10   30.31 30.42 0    
Feb 18 05:55 N 6 9 Light Snow OVC011 0 -6     75% -12   30.29 30.4 0   0
Feb 18 04:55 NNE 6 9 Light Snow BKN010 BKN022 1 -5     75% -10   30.27 30.38 0    
Feb 18 04:02 N 6 9 Light Snow BKN010 BKN022 2 -5     72% -9   30.26   0    
Feb 18 03:55 N 7 9 Light Snow BKN022 2 -5     72% -11   30.26 30.37 0    
Feb 18 02:55 N 7 9 Clear   3 -3     76% -9   30.25 30.35 0 0  
Feb 18 01:55 N 6 9 Light Snow SCT016 BKN022 3 -3     76% -8   30.23 30.34 0    
Feb 18 00:55 N 6 10 Mostly Cloudy FEW013 BKN019 3 -2     79% -8   30.22 30.32 0    
Feb 17 23:55 N 7 9 Light Snow OVC019 6 2     83% -6   30.2 30.3 0   0
Feb 17 23:39 N 7 10 Light Snow BKN016 7 3     83% -5   30.19   0    
Feb 17 22:55 N 5 9 Partly Cloudy SCT011 7 3     83% -2   30.18 30.28 0    
Feb 17 21:55 N 5 10 Mostly Clear FEW110 8 3     79% -1   30.17 30.27      
Feb 17 20:55 NNE 3 10 Mostly Clear FEW015 FEW110 7 3     83% 0   30.15 30.25      
Feb 17 19:55 NNE 5 10 Mostly Clear FEW110 9 4     80% 0   30.14 30.24      
Feb 17 18:55 NE 5 10 Partly Cloudy FEW014 SCT120 12 5     73% 4   30.13 30.23      
Feb 17 17:55 E 10 10 Partly Cloudy FEW013 SCT120 14 6     70% 1   30.11 30.21     0
Feb 17 17:11 E 11 10 Partly Cloudy SCT013 15 6     67% 2   30.1        
Feb 17 16:55 E 13 10 Mostly Cloudy BKN014 16 7     67% 2   30.09 30.19      
Feb 17 16:02 ESE 11 10 Mostly Cloudy BKN014 16 8     70% 3   30.09        
Feb 17 15:55 E 11 10 Mostly Cloudy SCT021 BKN025 17 9     70% 4   30.09 30.18      
Feb 17 15:02 E 11 10 Mostly Cloudy BKN021 18 9     67% 5   30.08        
Feb 17 14:55 E 9 10 Partly Cloudy SCT021 18 9     67% 7   30.08 30.17 0 0  
Feb 17 14:52 ESE 10 10 Partly Cloudy SCT021 18 9     67% 6   30.08   0    
Feb 17 13:55 ENE 15 7 Light Snow OVC021 18 8     65% 4   30.08 30.17 0    
Feb 17 12:55 ENE 16 5 Light Snow OVC021 18 9     67% 3   30.09 30.18 0    
Feb 17 12:24 ENE 15 10 Light Snow OVC019 18 9     67% 4   30.1   0    
Feb 17 11:55 E 10 1.5 Light Snow OVC016 17 10     73% 5   30.11 30.2 0   0
Feb 17 11:33 ESE 16 2 Light Snow OVC018 18 11     74% 3   30.11   0    
Feb 17 11:02 E 14 10 Light Snow OVC016 17 9     70% 3   30.1   0    
Feb 17 10:55 E 14 10 Light Snow OVC014 18 10     71% 4   30.1 30.19 0    
Feb 17 10:36 E 18 10 Cloudy OVC015 17 9     70% 1   30.1        
Feb 17 10:05 E 16 10 Mostly Cloudy BKN014 17 9     70% 2   30.1        
Feb 17 09:55 E 15 10 Partly Cloudy SCT014 16 8     70% 1   30.1 30.19      
Feb 17 08:55   10 Partly Cloudy SCT010 16 10     77%     30.09 30.18      
Feb 17 07:55 E 13 10 Mostly Cloudy FEW008 BKN120 14 9     80% 0   30.07 30.17      
Feb 17 06:55 E 10 10 Partly Cloudy SCT007 SCT120 13 8     81% 0   30.07 30.16      
Feb 17 05:55 E 8 10 Cloudy OVC009 14 9     80% 3   30.06 30.16      
Feb 17 05:35 E 9 10 Mostly Cloudy BKN009 13 8     81% 1   30.06        
Feb 17 05:25 E 9 10 Partly Cloudy SCT009 13 8     81% 1   30.06        
Feb 17 04:55 E 10 10 Clear CLR 14 9     80% 1   30.06 30.15      
Feb 17 03:55 E 11 10 Mostly Cloudy SCT009 BKN120 14 9     80% 1   30.06 30.15      
Feb 17 03:39 E 10 10 Mostly Cloudy SCT009 BKN120 14 9     80% 1   30.06        
Feb 17 02:55 E 10 10 Cloudy OVC009 15 10     80% 3   30.07 30.16      
Feb 17 02:24 E 9 10 Mostly Cloudy BKN008 15 10     80% 3   30.07        
Feb 17 01:55 E 10 10 Partly Cloudy FEW008 SCT120 15 9     76% 3   30.06 30.16      
Feb 17 00:55 E 10 10 Mostly Clear FEW120 15 10     80% 3   30.06 30.15      
Feb 16 23:55 E 11 10 Clear   15 11     83% 2   30.06 30.16      
Feb 16 23:02 E 10 10 Partly Cloudy SCT007 15 10     80% 3   30.06        
Feb 16 22:55 ESE 10 10 Mostly Cloudy BKN120 15 10     80% 3   30.06 30.15      
Feb 16 21:55 E 11 10 Mostly Cloudy FEW010 BKN120 15 10     80% 2   30.04 30.14      
Feb 16 20:55 E 9 10 Mostly Cloudy FEW010 BKN120 16 10     77% 4   30.05 30.16      
Feb 16 19:55 E 9 10 Mostly Cloudy BKN120 16 9     73% 4   30.06 30.17      
Feb 16 18:55 E 10 10 Mostly Cloudy BKN120 16 8     70% 4   30.06 30.17      
Feb 16 17:55 ESE 6 10 Mostly Cloudy BKN120 16 7     67% 7   30.06 30.17      
Feb 16 16:55 E 6 10 Partly Cloudy SCT120 17 6     61% 9   30.06 30.17      
Feb 16 15:55 ESE 5 10 Mostly Clear FEW120 16 5     61% 9   30.07 30.17      
Feb 16 14:55 SE 10 10 Mostly Clear FEW120 17 6     61% 5   30.05 30.16      
Feb 16 13:55 ESE 7 10 Clear CLR 17 8     67% 8   30.07 30.17      
Feb 16 12:55 E 7 10 Partly Cloudy SCT110 17 8     67% 8   30.09 30.19      
Feb 16 11:55 ESE 6 10 Mostly Clear FEW009 15 7     70% 6   30.11 30.21 0   0
Feb 16 11:02 SE 6 10 Mostly Clear FEW009 14 8     77% 5   30.12   0    
Feb 16 10:55 ESE 6 9 Light Snow BKN009 13 7     77% 4   30.12 30.23 0    
Feb 16 10:10 E 3 7 Light Snow BKN009 13 7     77% 7   30.12   0    
Feb 16 09:55 Calm 3 Light Snow OVC011 12 6     77%     30.13 30.23 0    
Feb 16 09:09 Calm 3 Light Snow and Fog/Mist OVC011 6 5     95%     30.13   0    
May 13 21:55 WSW 9 10 Mostly Cloudy BKN120 65 42     43%     29.87 29.88      
May 13 09:55 W 10 10 Cloudy OVC100 61 29     30%     30.02 30.04      
May 13 07:55 WNW 8 10 Mostly Clear FEW120 53 30     41%     30.03 30.05      
May 12 10:55 E 6 10 Clear CLR 57 21     24%     30.17 30.2      
Notice The following observation data may not be complete
May 12 07:55 ENE 5 10 Clear CLR   24      %     30.15 30.19      
May 12 03:55 N 3 10 Clear CLR 30 21     69% 27   30.11 30.15      
Jun 11 10:55   4 Rain and Fog/Mist OVC095 59 57     93%     29.74   0    
Jun 11 06:55 Calm 10 Partly Cloudy SCT120 61 57     87%     29.77 29.76      
Notice The following observation data may not be complete
Jun 10 05:21   10 Mostly Cloudy SCT008 SCT042 BKN075   60      %     29.51   1    
Jun 08 23:55 ENE 5 10 Mostly Clear FEW100 57 53     87%     29.88 29.88      
Jun 08 03:55 Calm 10 Mostly Clear FEW120 56 52     87%     29.9 29.9      
Jun 07 21:24 ESE 7 10 Thunderstorms SCT050 BKN080 BKN120 66 46     48%     29.97        
Jun 07 13:55 S 10 10 Mostly Clear FEW120 79 51     38%   78 30.05 30.05      
Jun 06 01:55 Calm 10 Clear CLR 45 39     80%     30.12 30.14      
Jun 05 17:55 E 13 10 Clear CLR 68 46     45%     30.06 30.07      
Jun 05 14:55 E 13 10 Mostly Clear FEW045 69 49     49%     30.07 30.08